Weather History for KPAH - March, 2013

Change the Weather History Date:

Monday, March 18, 2013

  Actual Average Record
Temperature  
Mean Temperature 43 °F 49 °F  
Max Temperature 51 °F 60 °F 83 °F (1982)
Min Temperature 34 °F 38 °F 19 °F (1960)
Degree Days  
Heating Degree Days 22 16  
Month to date heating degree days 413 339  
Since 1 July heating degree days 3524 3635  
Cooling Degree Days 0 0  
Month to date cooling degree days 0 0  
Year to date cooling degree days 0 0  
Moisture  
Dew Point 40 °F    
Average Humidity 83    
Maximum Humidity 100    
Minimum Humidity 66    
Precipitation  
Precipitation 1.01 in 0.12 in 3.21 in (2008)
Month to date precipitation 2.46 2.17  
Year to date precipitation 14.21 9.76  
Snow  
Snow 0.00 in 0.00 in 1.80 in (1988)
Month to date snowfall 0.6 0.5  
Since 1 July snowfall 6.7 9.0  
Snow Depth 0.00 in    
Sea Level Pressure  
Sea Level Pressure 29.76 in    
Wind  
Wind Speed 8 mph (WNW)    
Max Wind Speed 21 mph    
Max Gust Speed 25 mph    
Visibility 7 miles    
Events Rain , Thunderstorm    
T = Trace of Precipitation, MM = Missing Value Source: NWS Daily Summary

Daily Weather History Graph

Daily Weather History Graph

Search for Another Location

Airport or City:

Trip Planner

Search our weather history database for the weather conditions in past years. The results will help you decide how hot, cold, wet, or windy it might be!

Date:

Astronomy

Mar. 18, 2013 Rise Set
Actual Time 7:01 AM CDT 7:05 PM CDT
Civil Twilight 6:35 AM CDT 7:31 PM CDT
Nautical Twilight 6:05 AM CDT 8:01 PM CDT
Astronomical Twilight 5:34 AM CDT 8:32 PM CDT
Moon 11:08 AM CDT (3/18) 12:56 AM CDT (3/18)
Length of Visible Light 12h 55m
Length of Day
12h 04m
Waxing Crescent, 41% of the Moon is Illuminated
Mar 18
Waxing Crescent
Mar 19
First Quarter
Mar 27
Full
Apr 2
Last Quarter
Apr 10
New

Hourly Weather History & Observations

Time (CDT) Temp. Windchill Dew Point Humidity Pressure Visibility Wind Dir Wind Speed Gust Speed Precip Events Conditions
12:53 AM 42.1 °F 35.7 °F 41.0 °F 96% 29.72 in 7.0 mi NE 11.5 mph - 0.03 in Rain Light Rain
1:31 AM 41.0 °F 33.9 °F 39.2 °F 93% 29.76 in 4.0 mi North 12.7 mph 23.0 mph 0.02 in Rain , Thunderstorm Heavy Rain
1:39 AM 39.2 °F 31.6 °F 39.2 °F 100% 29.76 in 2.0 mi NNE 12.7 mph - 0.11 in Rain , Thunderstorm Heavy Thunderstorms and Rain
1:53 AM 39.9 °F 32.1 °F 37.9 °F 93% 29.73 in 3.0 mi NE 13.8 mph 24.2 mph 0.24 in Rain , Thunderstorm Light Thunderstorms and Rain
2:13 AM 39.2 °F 31.2 °F 37.4 °F 93% 29.72 in 6.0 mi NE 13.8 mph - 0.04 in Rain , Thunderstorm Heavy Thunderstorms and Rain
2:23 AM 39.2 °F 30.8 °F 37.4 °F 93% 29.74 in 8.0 mi North 15.0 mph - 0.07 in Rain , Thunderstorm Light Thunderstorms and Rain
2:53 AM 39.9 °F 30.2 °F 37.9 °F 93% 29.70 in 3.0 mi East 20.7 mph 25.3 mph 0.19 in Rain , Thunderstorm Thunderstorms and Rain
3:01 AM 39.2 °F 29.8 °F 37.4 °F 93% 29.68 in 3.0 mi East 18.4 mph - 0.06 in Rain , Thunderstorm Heavy Thunderstorms and Rain
3:04 AM 39.2 °F 29.3 °F 37.4 °F 93% 29.66 in 2.0 mi ESE 20.7 mph 24.2 mph 0.12 in Rain , Thunderstorm Heavy Thunderstorms and Rain
3:24 AM 41.0 °F 37.1 °F 39.2 °F 93% 29.68 in 4.0 mi ENE 5.8 mph - 0.30 in Rain , Thunderstorm Light Thunderstorms and Rain
3:41 AM 41.0 °F 37.1 °F 41.0 °F 100% 29.68 in 2.5 mi ENE 5.8 mph - 0.44 in Rain , Thunderstorm Thunderstorms and Rain
3:50 AM 42.8 °F 40.1 °F 41.0 °F 93% 29.68 in 5.0 mi ENE 4.6 mph - 0.46 in Rain , Thunderstorm Light Rain
3:53 AM 42.1 °F 39.2 °F 41.0 °F 96% 29.69 in 6.0 mi NE 4.6 mph - 0.47 in Rain , Thunderstorm Light Rain
4:09 AM 42.8 °F 39.3 °F 39.2 °F 87% 29.68 in 2.5 mi NNE 5.8 mph - 0.05 in Rain , Thunderstorm Heavy Thunderstorms and Rain
4:20 AM 41.0 °F 37.1 °F 41.0 °F 100% 29.67 in 4.0 mi SE 5.8 mph - 0.11 in Rain Light Rain
4:44 AM 42.8 °F 39.3 °F 41.0 °F 93% 29.67 in 8.0 mi SSE 5.8 mph - 0.11 in   Overcast
4:53 AM 43.0 °F 37.2 °F 42.1 °F 97% 29.67 in 10.0 mi SSE 10.4 mph - 0.11 in   Overcast
5:53 AM 44.1 °F 41.5 °F 42.1 °F 93% 29.66 in 10.0 mi South 4.6 mph - N/A   Overcast
6:18 AM 44.6 °F 41.4 °F 42.8 °F 93% 29.66 in 10.0 mi South 5.8 mph - N/A   Overcast
6:45 AM 44.6 °F 40.7 °F 42.8 °F 93% 29.67 in 9.0 mi West 6.9 mph - N/A   Mostly Cloudy
6:53 AM 45.0 °F 43.5 °F 43.0 °F 93% 29.68 in 9.0 mi Variable 3.5 mph - N/A   Overcast
7:23 AM 44.6 °F 40.2 °F 42.8 °F 93% 29.70 in 8.0 mi West 8.1 mph - N/A   Overcast
7:53 AM 44.1 °F 40.8 °F 43.0 °F 96% 29.69 in 4.0 mi West 5.8 mph - N/A   Overcast
8:07 AM 44.6 °F 41.4 °F 42.8 °F 93% 29.70 in 4.0 mi SW 5.8 mph - N/A   Overcast
8:26 AM 44.6 °F 40.7 °F 42.8 °F 93% 29.70 in 3.0 mi West 6.9 mph - N/A   Overcast
8:53 AM 46.0 °F 41.4 °F 44.1 °F 93% 29.72 in 5.0 mi SW 9.2 mph - N/A   Overcast
9:11 AM 46.4 °F 43.5 °F 44.6 °F 93% 29.72 in 5.0 mi SW 5.8 mph - N/A   Overcast
9:53 AM 46.9 °F - 44.1 °F 90% 29.76 in 4.0 mi West 9.2 mph - N/A   Overcast
10:53 AM 48.0 °F - 44.1 °F 86% 29.76 in 10.0 mi West 9.2 mph - N/A   Overcast
11:00 AM 48.2 °F - 44.6 °F 87% 29.76 in 10.0 mi West 9.2 mph - N/A   Overcast
11:53 AM 48.0 °F - 43.0 °F 83% 29.81 in 10.0 mi West 13.8 mph - N/A   Overcast
12:53 PM 48.9 °F - 43.0 °F 80% 29.79 in 10.0 mi WNW 10.4 mph - N/A   Overcast
1:53 PM 50.0 °F - 44.1 °F 80% 29.76 in 10.0 mi West 8.1 mph - N/A   Overcast
2:53 PM 50.0 °F - 43.0 °F 77% 29.78 in 10.0 mi WNW 8.1 mph - N/A   Overcast
3:53 PM 48.9 °F - 42.1 °F 77% 29.81 in 10.0 mi NW 12.7 mph 20.7 mph N/A   Overcast
4:50 PM 50.0 °F - 39.2 °F 66% 29.82 in 10.0 mi NW 11.5 mph - N/A   Mostly Cloudy
4:53 PM 50.0 °F - 39.9 °F 68% 29.83 in 10.0 mi WNW 11.5 mph - N/A   Mostly Cloudy
5:53 PM 50.0 °F - 39.0 °F 66% 29.85 in 10.0 mi NNW 9.2 mph - N/A   Scattered Clouds
6:16 PM 50.0 °F - 37.4 °F 62% 29.86 in 10.0 mi NW 9.2 mph - N/A   Mostly Cloudy
6:24 PM 48.2 °F - 37.4 °F 66% 29.87 in 10.0 mi NW 6.9 mph - N/A   Scattered Clouds
6:53 PM 46.9 °F - 37.9 °F 71% 29.88 in 10.0 mi NW 6.9 mph - N/A   Clear
7:53 PM 46.0 °F 44.8 °F 37.0 °F 71% 29.91 in 10.0 mi WNW 3.5 mph - N/A   Clear
8:53 PM 39.0 °F - 36.0 °F 89% 29.94 in 10.0 mi Calm Calm - N/A   Clear
9:53 PM 37.9 °F 34.4 °F 36.0 °F 93% 29.96 in 10.0 mi SW 4.6 mph - N/A   Clear
10:53 PM 34.0 °F 29.8 °F 33.1 °F 96% 29.96 in 10.0 mi SW 4.6 mph - N/A   Clear
11:53 PM 36.0 °F 31.1 °F 34.0 °F 93% 30.00 in 10.0 mi SW 5.8 mph - N/A   Clear